Location: Albany
(35.0170°S, 117.8920°E)
Time: 17:11:46
(UTC+08:00)

Transit 2A - Pass Details

Date: 23 January 2021
Orbit: 601 x 958 km, 66.7° (Epoch: 02 March)

Event Time Altitude Azimuth Distance (km) Brightness Sun altitude
Rises 15:06:44 0° 357° (N) 2,909 9.1 50.2°
Reaches altitude 10° 15:09:04 10° 5° (N) 2,046 8.4 49.7°
Maximum altitude 15:13:16 35° 71° (ENE) 1,101 6.9 48.9°
Drops below altitude 10° 15:17:53 10° 136° (SE) 2,254 8.2 47.9°
Sets 15:20:33 0° 144° (SE) 3,249 9.0 47.4°
